User: anonymous   Login
Location: Prairie State College
(41.5244°N, 87.6382°W)
Time: 19:17:39
(UTC-05:00)
Language:

ARGOS Delta rocket - Orbit

View from above orbital plane
View from above orbital plane
View from above satellite
View from above satellite

Ground track
Ground track

The orbit data is extracted from the following two-line orbital elements,

1 25637U 99008D   14297.88982367  .00001083  00000-0  27405-3 0  6218
2 25637 096.4858 049.3183 0145339 114.4657 033.1234 14.46015209825931
Epoch (UTC): 24 October 2014 21:21:20
Eccentricity: 0.0145339
inclination: 96.4858°
perigee height: 635 km
apogee height: 842 km
right ascension of ascending node: 49.3183°
argument of perigee: 114.4657°
revolutions per day: 14.46015209
mean anomaly at epoch: 33.1234°
orbit number at epoch: 82593

The dashed part of the orbit path shows where the satellite is in the earth's shadow,  

DLR